• In Uzbekistan
  • List of Countries
  • For 7 days
  • Water Temperature
  • Satellite Maps
  • Weather Map
  • Weather Widgets
  • user-avatar
    Login

    Hourly Weather Jewłach

    Today, 28 March, Tuesday

    Time Temperature Precipitation Wind Pressure Humidity
    00:00 +13°C° 0.1 mm 1 mps 756 mmHg 55%
    01:00 +13°C° 0 mm 1 mps 756 mmHg 57%
    02:00 +12°C° 0 mm 2 mps 756 mmHg 60%
    03:00 +12°C° 0 mm 2 mps 756 mmHg 62%
    04:00 +10°C° 0 mm 2 mps 756 mmHg 66%
    05:00 +10°C° 0 mm 2 mps 757 mmHg 69%
    06:00 +9°C° 0 mm 2 mps 758 mmHg 72%
    07:00 +11°C° 0 mm 4 mps 758 mmHg 66%
    08:00 +11°C° 0 mm 6 mps 759 mmHg 60%
    09:00 +12°C° 0 mm 7 mps 759 mmHg 55%
    10:00 +13°C° 0.1 mm 8 mps 759 mmHg 50%
    11:00 +13°C° 0.1 mm 8 mps 759 mmHg 45%
    12:00 +15°C° 0.1 mm 8 mps 760 mmHg 40%
    13:00 +15°C° 0.1 mm 8 mps 759 mmHg 40%
    14:00 +15°C° 0.1 mm 7 mps 759 mmHg 39%
    15:00 +15°C° 0.1 mm 6 mps 759 mmHg 39%
    16:00 +14°C° 0.1 mm 5 mps 760 mmHg 42%
    17:00 +13°C° 0.1 mm 3 mps 760 mmHg 45%
    18:00 +13°C° 0.1 mm 2 mps 761 mmHg 48%
    19:00 +12°C° 0 mm 2 mps 761 mmHg 49%
    20:00 +10°C° 0 mm 2 mps 762 mmHg 49%
    21:00 +10°C° 0 mm 2 mps 762 mmHg 50%
    22:00 +9°C° 0 mm 3 mps 762 mmHg 51%
    23:00 +8°C° 0 mm 3 mps 762 mmHg 52%

    Tomorrow, 29 March, Wednesday

    Time Temperature Precipitation Wind Pressure Humidity
    00:00 +8°C° 0 mm 3 mps 762 mmHg 54%
    01:00 +7°C° 0 mm 4 mps 761 mmHg 52%
    02:00 +7°C° 0 mm 5 mps 761 mmHg 50%
    03:00 +7°C° 0 mm 6 mps 761 mmHg 48%
    04:00 +7°C° 0 mm 6 mps 761 mmHg 47%
    05:00 +7°C° 0 mm 6 mps 761 mmHg 46%
    06:00 +7°C° 0 mm 6 mps 761 mmHg 44%
    07:00 +9°C° 0 mm 7 mps 761 mmHg 40%
    08:00 +11°C° 0 mm 7 mps 761 mmHg 35%
    09:00 +13°C° 0 mm 8 mps 761 mmHg 31%
    10:00 +15°C° 0 mm 8 mps 761 mmHg 29%
    11:00 +16°C° 0 mm 8 mps 760 mmHg 27%
    12:00 +18°C° 0 mm 8 mps 760 mmHg 25%
    13:00 +18°C° 0 mm 7 mps 760 mmHg 25%
    14:00 +20°C° 0 mm 7 mps 760 mmHg 24%
    15:00 +20°C° 0 mm 7 mps 760 mmHg 24%
    16:00 +17°C° 0 mm 6 mps 761 mmHg 28%
    17:00 +17°C° 0 mm 4 mps 762 mmHg 32%
    18:00 +14°C° 0 mm 3 mps 762 mmHg 35%
    19:00 +13°C° 0 mm 3 mps 763 mmHg 39%
    20:00 +13°C° 0 mm 2 mps 764 mmHg 42%
    21:00 +10°C° 0 mm 2 mps 765 mmHg 45%
    22:00 +9°C° 0 mm 2 mps 766 mmHg 54%
    23:00 +9°C° 0 mm 3 mps 766 mmHg 62%

    Day after tomorrow, 30 March, Thursday

    Time Temperature Precipitation Wind Pressure Humidity
    00:00 +8°C° 0 mm 3 mps 767 mmHg 71%
    01:00 +7°C° 0 mm 2 mps 767 mmHg 75%
    02:00 +7°C° 0 mm 2 mps 767 mmHg 80%
    03:00 +7°C° 0 mm 1 mps 767 mmHg 84%
    04:00 +7°C° 0 mm 1 mps 767 mmHg 85%
    05:00 +7°C° 0 mm 1 mps 768 mmHg 85%
    06:00 +6°C° 0 mm 1 mps 768 mmHg 86%
    07:00 +8°C° 0 mm 1 mps 768 mmHg 77%
    08:00 +9°C° 0 mm 2 mps 767 mmHg 69%
    09:00 +12°C° 0 mm 2 mps 767 mmHg 60%
    10:00 +13°C° 0 mm 2 mps 766 mmHg 56%
    11:00 +14°C° 0 mm 2 mps 766 mmHg 52%
    12:00 +16°C° 0 mm 2 mps 765 mmHg 48%
    13:00 +16°C° 0 mm 2 mps 764 mmHg 46%
    14:00 +17°C° 0 mm 2 mps 763 mmHg 44%
    15:00 +17°C° 0 mm 2 mps 762 mmHg 43%
    16:00 +16°C° 0 mm 1 mps 762 mmHg 48%
    17:00 +15°C° 0 mm 1 mps 762 mmHg 54%
    18:00 +13°C° 0 mm 1 mps 762 mmHg 60%
    19:00 +12°C° 0 mm 1 mps 763 mmHg 63%
    20:00 +11°C° 0 mm 1 mps 763 mmHg 66%
    21:00 +11°C° 0 mm 1 mps 763 mmHg 69%
    22:00 +10°C° 0 mm 1 mps 763 mmHg 69%
    23:00 +10°C° 0 mm 1 mps 762 mmHg 68%

    31 March, Friday

    Time Temperature Precipitation Wind Pressure Humidity
    00:00 +9°C° 0 mm 2 mps 762 mmHg 67%
    01:00 +9°C° 0 mm 2 mps 762 mmHg 64%
    02:00 +9°C° 0 mm 3 mps 762 mmHg 61%
    03:00 +9°C° 0 mm 3 mps 761 mmHg 58%
    04:00 +9°C° 0 mm 3 mps 762 mmHg 56%
    05:00 +9°C° 0 mm 3 mps 762 mmHg 53%
    06:00 +8°C° 0 mm 4 mps 762 mmHg 51%
    07:00 +12°C° 0 mm 4 mps 762 mmHg 45%
    08:00 +14°C° 0 mm 4 mps 762 mmHg 38%
    09:00 +17°C° 0 mm 5 mps 762 mmHg 32%
    10:00 +19°C° 0 mm 4 mps 762 mmHg 30%
    11:00 +21°C° 0 mm 4 mps 762 mmHg 27%
    12:00 +22°C° 0 mm 4 mps 761 mmHg 25%
    13:00 +22°C° 0 mm 3 mps 761 mmHg 24%
    14:00 +22°C° 0 mm 3 mps 761 mmHg 24%
    15:00 +24°C° 0 mm 2 mps 761 mmHg 23%
    16:00 +21°C° 0 mm 2 mps 762 mmHg 27%
    17:00 +19°C° 0 mm 2 mps 763 mmHg 30%
    18:00 +17°C° 0 mm 2 mps 763 mmHg 34%
    19:00 +16°C° 0 mm 3 mps 764 mmHg 40%
    20:00 +14°C° 0 mm 4 mps 765 mmHg 47%
    21:00 +13°C° 0 mm 6 mps 766 mmHg 53%
    22:00 +11°C° 0 mm 6 mps 766 mmHg 59%
    23:00 +11°C° 0 mm 6 mps 766 mmHg 66%

    1 April, Saturday

    Time Temperature Precipitation Wind Pressure Humidity
    00:00 +10°C° 0 mm 6 mps 766 mmHg 72%
    01:00 +9°C° 0.5 mm 6 mps 766 mmHg 76%
    02:00 +8°C° 0.5 mm 6 mps 766 mmHg 80%
    03:00 +8°C° 0.5 mm 5 mps 766 mmHg 84%
    04:00 +7°C° 0.3 mm 5 mps 766 mmHg 84%
    05:00 +7°C° 0.3 mm 5 mps 766 mmHg 84%
    06:00 +7°C° 0.3 mm 5 mps 766 mmHg 83%
    07:00 +7°C° 0.1 mm 5 mps 766 mmHg 80%
    08:00 +7°C° 0.1 mm 5 mps 766 mmHg 77%
    09:00 +7°C° 0.1 mm 5 mps 766 mmHg 74%
    10:00 +8°C° 0.1 mm 4 mps 766 mmHg 71%
    11:00 +10°C° 0.1 mm 4 mps 765 mmHg 68%
    12:00 +10°C° 0.1 mm 4 mps 765 mmHg 65%
    13:00 +10°C° 0.2 mm 4 mps 764 mmHg 65%
    14:00 +10°C° 0.2 mm 3 mps 764 mmHg 65%
    15:00 +10°C° 0.2 mm 3 mps 764 mmHg 65%
    16:00 +9°C° 0 mm 3 mps 764 mmHg 68%
    17:00 +9°C° 0 mm 2 mps 764 mmHg 71%
    18:00 +8°C° 0 mm 2 mps 764 mmHg 73%
    19:00 +8°C° 0 mm 2 mps 765 mmHg 76%
    20:00 +7°C° 0 mm 2 mps 765 mmHg 79%
    21:00 +7°C° 0 mm 2 mps 765 mmHg 82%
    22:00 +6°C° 0 mm 2 mps 765 mmHg 83%
    23:00 +6°C° 0 mm 2 mps 765 mmHg 85%

    2 April, Sunday

    Time Temperature Precipitation Wind Pressure Humidity
    00:00 +5°C° 0 mm 2 mps 765 mmHg 86%
    01:00 +5°C° 0 mm 2 mps 765 mmHg 86%
    02:00 +5°C° 0 mm 2 mps 766 mmHg 86%
    03:00 +4°C° 0 mm 2 mps 766 mmHg 87%
    04:00 +4°C° 0 mm 2 mps 766 mmHg 87%
    05:00 +4°C° 0 mm 2 mps 766 mmHg 88%
    06:00 +4°C° 0 mm 2 mps 767 mmHg 88%
    07:00 +5°C° 0.2 mm 2 mps 767 mmHg 83%
    08:00 +5°C° 0.2 mm 3 mps 768 mmHg 79%
    09:00 +7°C° 0.2 mm 3 mps 768 mmHg 74%
    10:00 +7°C° 0.1 mm 4 mps 768 mmHg 72%
    11:00 +8°C° 0.1 mm 4 mps 768 mmHg 69%
    12:00 +8°C° 0.1 mm 5 mps 768 mmHg 66%
    13:00 +9°C° 0 mm 5 mps 768 mmHg 64%
    14:00 +9°C° 0 mm 5 mps 768 mmHg 63%
    15:00 +10°C° 0 mm 6 mps 768 mmHg 61%
    16:00 +9°C° 0 mm 5 mps 768 mmHg 65%
    17:00 +8°C° 0 mm 5 mps 769 mmHg 69%
    18:00 +7°C° 0 mm 4 mps 769 mmHg 72%
    19:00 +6°C° 0 mm 4 mps 770 mmHg 75%
    20:00 +7°C° 0 mm 3 mps 770 mmHg 77%
    21:00 +5°C° 0 mm 3 mps 771 mmHg 79%
    22:00 +5°C° 0 mm 3 mps 771 mmHg 78%
    23:00 +5°C° 0 mm 2 mps 771 mmHg 77%
    Show more